SCP
0 0 0 0 0 0 0 0 0 0 0 0 0 0 0 0 0 0 0 0 0 0 0 0 0 0 0 0 0 0 0 0 0 0 0 0 0 -0 -0 -0 -0 0 0 0
0 0 0 0 0 0 0 0 0 0 0 0 0 0 0 0 0 0 0 0 0 0 0 0 0 0 0 0 0 0 0 0 0 0 0 0 0 -0 -0 0 0 0 0 0
0 0 0 0 0 0 0 0 0 0 0 0 0 0 0 0 0 0 0 0 0 0 0 0 0 0 0 0 0 0 0 0 0 0 0 0 0 0 0 0 0 0 0 0
0 0 0 0 0 0 0 0 0 0 0 0 0 0 0 0 0 0 0 0 0 0 0 0 0 0 0 0 0 0 0 0 0 0 0 0 0 0 0 0 0 0 0 0
0 0 0 0 0 0 0 0 0 0 0 0 0 0 0 0 0 0 0 0 0 0 0 0 0 0 0 0 0 0 0 0 0 0 0 0 0 0 0 0 0 0 0 0
0 0 0 0 0 0 0 0 0 -0 -0 0 0 0 0 0 0 0 0 0 0 0 0 0 0 0 0 0 0 0 0 0 0 0 0 0 0 0 0 0 0 0 0 0
0 0 0 0 0 0 0 0 0 -0 -0 -0 0 0 0 0 0 0 0 0 0 0 0 0 0 0 0 1 1 0 0 0 0 0 0 0 0 0 0 0 0 0 0 0
0 0 0 0 0 0 0 0 0 -0 -0 -0 0 0 0 0 0 0 0 0 0 0 0 0 0 0 1 1 1 1 0 0 0 0 0 0 0 0 0 0 0 0 0 0
0 0 0 0 0 0 0 0 0 0 0 0 0 0 0 0 0 0 0 0 0 0 0 0 0 0 1 1 1 1 1 1 0 0 0 0 0 0 0 0 0 0 0 0
-0 0 0 0 0 0 0 0 0 0 0 0 0 0 0 0 0 0 0 0 0 0 0 0 0 1 1 1 1 1 1 1 0 0 0 0 0 0 0 0 0 0 0 0
-0 0 0 0 0 0 0 0 0 0 0 0 0 0 0 0 0 1 1 0 0 0 0 0 0 1 1 1 1 1 0 0 0 0 0 0 0 0 0 0 0 0 0 0
-0 0 0 0 0 0 0 0 0 0 0 0 0 0 0 0 0 1 1 1 0 0 0 0 0 1 1 1 1 1 0 0 0 1 1 0 0 0 0 0 0 0 0 0
-0 -0 0 0 0 0 0 0 0 0 0 0 0 0 0 0 0 1 1 1 1 0 0 0 0 0 1 1 1 1 1 1 1 1 1 1 1 1 1 1 0 0 0 0
-0 -0 -0 -0 0 0 0 0 0 0 0 0 0 0 0 0 0 1 1 1 1 1 1 1 1 0 0 1 1 1 1 1 1 1 1 1 1 1 1 1 1 1 0 0
0 0 0 0 -0 0 0 0 0 0 0 0 0 0 0 0 0 1 1 1 1 1 1 1 1 0 1 1 1 1 1 1 1 1 1 1 1 1 1 1 1 1 1 1
0 0 0 0 0 0 0 0 0 0 0 0 0 0 0 0 0 1 1 1 1 1 1 1 1 1 1 1 1 1 1 1 1 1 1 1 1 0 0 1 1 1 1 1
0 0 0 0 0 0 0 0 0 0 0 0 0 0 0 0 0 1 1 1 1 1 1 1 1 1 1 1 1 1 2 2 1 1 1 1 1 0 0 1 1 1 1 1
0 0 0 0 0 0 0 0 0 0 0 0 0 0 0 0 0 1 1 1 1 1 1 1 1 1 1 1 1 1 1 1 1 1 1 1 1 1 1 1 1 1 1 1
0 0 0 0 0 0 0 0 0 0 0 0 0 0 0 0 0 1 1 1 1 1 1 1 1 1 1 1 1 1 1 1 1 1 1 1 1 1 1 1 1 1 1 1
0 0 0 0 0 0 0 0 0 0 0 0 0 0 0 0 0 0 1 1 1 1 1 1 1 1 1 1 1 1 1 1 1 1 1 1 1 1 1 1 1 1 1 1
0 0 0 0 0 0 0 0 0 0 0 0 0 0 0 0 0 0 1 1 1 1 1 1 0 0 0 0 0 0 1 1 1 1 1 1 1 1 1 1 1 1 1 1
0 0 0 0 0 0 0 0 0 0 0 0 0 0 0 0 0 1 1 1 1 1 1 0 0 0 0 0 0 0 1 1 1 1 1 1 1 1 1 1 1 1 1 1
0 0 0 0 0 0 0 0 0 0 0 0 0 0 0 0 1 1 1 1 1 1 0 0 0 0 0 0 0 0 1 1 1 1 1 1 1 1 1 1 1 1 1 1
0 0 0 0 0 0 0 0 0 0 0 0 0 0 0 1 1 1 1 1 1 1 0 0 0 0 0 0 0 0 1 1 1 1 1 1 0 0 0 0 0 0 0 0
0 0 0 0 0 0 0 0 0 0 0 0 0 0 1 1 1 1 1 1 1 1 0 0 0 0 0 0 0 0 1 1 1 1 1 0 0 0 0 0 0 0 0 0
0 0 0 0 0 0 0 0 0 0 0 0 1 1 1 1 1 1 1 1 1 0 0 0 0 0 0 0 0 1 1 1 1 1 1 0 0 0 0 0 0 0 0 0
Wind_Speed
2 2 4 6 7 7 4 2 2 4 3 3 4 6 10 10 9 10 10 10 10 11 9 10 10 10 9 8 7 7 6 5 4 3 2 2 2 2 1 2 3 3 3 3
3 5 10 6 4 4 3 2 2 3 2 1 2 4 8 10 11 13 12 12 11 9 8 9 9 10 10 9 8 7 7 6 5 3 3 2 3 2 2 1 2 3 3 3
7 9 6 4 4 4 4 3 3 2 2 3 3 2 1 3 5 7 9 10 11 13 12 11 10 10 10 9 9 9 7 6 6 4 3 2 2 2 1 1 1 2 3 3
6 8 5 5 6 5 5 6 4 3 2 1 2 1 4 4 4 7 9 9 10 12 12 12 11 11 11 11 9 8 8 7 6 5 4 5 4 3 2 2 2 2 3 3
7 6 5 6 8 5 7 5 3 3 3 1 1 2 5 2 4 8 10 11 11 12 13 13 13 13 11 11 10 8 8 7 6 6 6 5 4 3 2 2 2 2 1 2
8 6 5 7 5 3 3 2 4 5 5 1 3 3 5 5 8 8 9 11 11 11 12 12 11 10 9 9 9 9 8 6 6 6 6 6 5 4 4 3 3 2 1 1
6 6 4 2 1 2 3 5 3 4 3 4 3 2 7 7 7 10 11 11 9 9 11 11 11 11 10 11 10 9 9 8 7 7 6 6 6 5 5 4 4 3 2 2
2 6 5 3 6 5 3 8 8 5 4 4 2 3 6 5 6 7 7 9 9 8 9 11 12 12 11 12 11 10 10 9 8 8 7 5 5 4 3 4 4 4 3 3
4 6 6 4 3 6 2 2 8 8 2 0 3 3 6 1 2 4 5 6 9 10 9 9 10 10 10 11 11 10 10 9 8 8 7 5 5 5 4 4 4 3 3 3
6 3 6 4 3 2 5 5 5 6 4 1 3 3 4 4 4 4 6 7 7 7 8 8 9 10 10 10 10 10 10 9 8 8 7 6 5 5 4 4 4 3 3 3
4 3 5 3 0 3 1 3 5 4 6 6 2 6 5 6 6 6 7 8 8 8 9 9 9 9 9 8 9 9 8 8 8 8 7 5 5 4 4 4 4 4 3 3
2 5 2 6 6 3 4 3 5 5 2 4 4 6 3 3 4 4 4 5 7 8 7 8 8 8 8 8 8 9 9 8 7 7 6 6 5 5 5 5 5 4 4 4
3 5 2 7 7 5 2 1 2 5 5 4 4 5 3 2 3 3 4 4 5 5 5 6 7 7 7 7 7 7 8 8 7 6 6 5 5 5 5 5 4 4 4 4
5 4 6 6 6 3 3 3 1 5 4 2 4 3 3 2 2 2 3 4 5 5 4 5 6 6 6 6 6 6 6 7 7 6 6 5 5 5 5 5 5 5 5 5
6 3 2 3 4 2 2 2 0 1 5 6 5 4 4 3 3 3 3 4 5 5 4 3 3 4 5 5 5 6 6 6 6 6 6 6 5 5 5 5 5 5 5 5
4 3 2 2 2 2 3 4 2 1 3 5 4 2 2 1 1 2 3 5 5 5 5 5 4 4 5 5 5 5 5 6 6 7 7 6 5 5 5 6 5 5 5 5
1 4 3 2 3 3 3 3 1 2 2 5 4 4 2 3 2 2 4 5 5 5 5 5 4 5 5 5 5 5 6 5 6 6 6 6 5 5 4 5 4 5 5 5
4 3 3 1 3 2 5 1 4 5 2 2 4 3 4 4 3 2 4 5 5 4 5 4 3 3 3 2 3 3 4 5 5 5 4 5 5 4 4 4 4 5 4 4
6 7 4 3 1 3 3 2 0 3 1 1 4 3 2 2 4 4 2 3 3 3 4 4 3 4 3 3 3 4 3 3 4 4 4 5 5 5 4 4 4 4 3 4
4 5 5 3 2 4 5 4 2 4 1 1 3 4 3 3 2 2 1 2 3 4 4 4 3 4 4 3 4 5 3 3 2 3 4 4 4 5 5 5 4 3 3 4
4 4 3 3 2 4 5 5 2 3 5 2 3 4 4 3 4 3 2 3 4 4 4 4 4 4 3 2 4 4 3 3 3 2 2 2 3 3 3 3 3 3 3 3
3 3 2 3 3 5 4 2 3 4 2 1 2 3 3 2 2 4 4 4 5 4 3 4 4 3 2 2 3 3 2 2 1 1 2 2 2 2 2 2 2 2 2 3
1 4 4 4 4 4 1 2 3 3 2 1 2 2 3 4 3 4 4 4 4 4 3 3 4 3 2 2 2 2 1 1 2 2 1 1 1 1 1 1 2 1 1 1
2 1 3 2 1 0 1 2 2 2 2 1 2 2 2 3 4 4 4 4 3 3 3 3 4 4 2 1 1 2 1 2 3 2 1 1 1 1 1 1 1 2 1 1
2 1 2 1 1 2 2 1 1 1 3 4 3 3 3 5 4 4 4 4 3 3 2 3 3 2 1 1 1 1 2 3 3 2 1 1 1 1 1 1 1 1 1 3
2 2 3 4 5 3 3 2 1 2 2 3 4 3 3 3 4 4 4 4 4 3 3 3 2 2 1 2 2 1 1 3 3 2 1 1 1 1 1 1 2 3 1 2
Wind_Direction
287 84 240 233 218 209 205 221 244 258 219 167 185 184 180 181 173 170 168 166 168 172 169 161 159 156 151 149 147 150 148 155 149 140 137 128 128 134 134 140 144 145 141 132
351 260 239 228 231 226 226 245 260 294 268 133 187 196 181 182 180 177 171 170 169 164 161 164 163 161 160 160 157 154 157 160 162 159 157 152 147 152 160 148 137 149 146 146
214 243 246 241 240 232 255 209 217 229 1 58 90 5 173 199 179 179 175 172 169 169 170 170 168 168 166 166 167 165 164 163 164 155 134 121 94 87 92 109 144 158 149 151
234 244 246 233 231 209 250 233 202 182 110 255 129 193 262 213 190 189 183 181 179 177 174 173 172 173 176 175 171 165 164 165 167 160 152 148 148 156 182 176 167 169 161 155
245 236 231 233 236 201 224 225 166 154 133 79 41 138 269 182 205 213 196 186 183 182 178 177 177 179 179 175 172 168 163 167 168 166 164 160 162 172 160 150 149 162 176 171
247 249 216 217 238 199 195 61 54 56 69 21 239 167 254 216 208 208 204 196 186 178 178 177 174 172 176 174 171 169 166 171 172 168 166 166 168 166 153 154 164 175 179 187
292 292 274 222 254 301 102 92 42 9 15 253 240 172 238 230 204 197 196 189 180 174 174 171 172 173 176 174 173 172 171 175 177 173 173 176 178 175 174 175 178 176 178 192
236 282 265 238 188 196 200 141 154 183 212 268 314 228 255 239 205 187 178 169 161 169 176 176 178 173 172 172 171 172 176 179 179 178 180 179 177 177 182 181 179 184 191 199
188 253 280 270 223 159 174 176 165 141 160 119 294 301 311 265 176 175 160 162 172 175 173 177 177 171 169 169 173 175 178 178 181 182 178 179 179 179 180 177 177 184 192 195
165 232 282 296 7 329 165 157 95 113 139 217 299 285 242 231 201 180 173 180 182 174 172 179 182 175 173 170 167 170 176 180 180 181 184 186 187 184 177 169 173 179 187 190
145 161 300 357 172 240 29 81 104 115 145 150 205 266 233 204 195 178 179 176 171 176 176 181 184 179 173 164 166 169 176 177 178 181 183 183 182 182 175 176 187 189 182 175
146 128 243 261 258 217 146 154 138 143 199 154 160 258 275 193 167 146 155 159 161 167 175 178 175 169 165 170 175 176 178 177 178 176 174 181 181 180 184 190 192 186 183 185
106 103 52 338 337 356 34 37 124 132 126 144 162 249 333 50 85 112 129 138 141 141 157 165 160 165 170 171 175 175 177 179 177 170 167 171 181 187 195 198 194 191 190 189
105 109 154 194 229 267 315 333 77 111 125 165 197 211 313 5 111 124 127 129 129 133 143 152 152 167 173 170 169 172 177 174 171 168 169 176 187 192 199 200 197 196 194 194
89 112 175 223 240 279 308 309 3 132 161 164 193 185 222 216 195 167 134 131 129 131 125 139 153 165 166 165 167 167 169 168 167 166 176 189 192 191 191 196 203 199 199 205
69 113 62 350 338 0 345 346 6 66 124 134 140 197 226 177 112 107 129 137 134 139 133 135 144 149 156 165 164 163 164 166 163 170 183 186 183 191 198 198 196 197 204 209
65 102 81 283 319 19 321 319 56 89 116 135 164 211 151 98 100 137 151 140 136 136 127 138 159 158 163 168 161 162 165 162 165 177 182 179 181 191 201 198 190 197 205 206
149 116 127 134 41 230 244 293 91 95 70 111 143 156 150 154 149 123 125 134 136 135 131 135 140 139 144 138 141 146 147 150 163 176 186 187 184 189 193 194 201 207 202 202
155 139 125 119 156 262 298 326 165 120 351 89 134 130 118 116 65 32 37 105 132 132 129 136 131 124 112 112 117 113 118 145 162 183 191 191 184 183 187 198 206 205 197 201
74 109 121 126 152 224 250 280 276 99 289 308 115 120 113 81 81 270 333 77 84 89 95 108 112 100 100 108 115 114 125 139 173 202 201 194 186 185 194 204 210 206 194 204
34 50 110 149 188 249 268 288 11 121 229 258 127 139 145 167 196 196 140 96 96 93 91 88 98 103 112 125 128 136 145 179 199 192 179 172 175 187 196 202 205 197 191 189
152 129 153 140 171 246 299 39 139 198 218 174 155 158 145 143 125 119 117 111 108 101 95 89 90 86 76 92 115 131 167 207 144 124 141 159 170 190 189 173 180 170 162 163
118 175 168 168 204 248 353 130 181 160 136 146 139 154 134 124 126 121 120 121 117 113 105 98 99 91 70 71 105 129 186 120 101 88 122 142 139 154 160 168 169 148 137 146
317 71 105 91 248 253 51 72 67 108 130 141 135 148 137 141 147 143 140 134 125 112 105 104 95 96 97 105 103 140 148 114 105 111 164 148 125 118 113 148 153 145 153 158
265 25 76 104 228 26 13 47 97 78 85 90 92 103 130 133 137 144 143 137 125 109 99 101 104 115 126 104 86 104 122 114 106 105 118 116 119 131 105 74 67 143 173 175
266 173 161 213 221 184 222 246 97 92 91 102 98 74 70 106 121 124 129 125 120 115 106 93 90 111 119 107 93 74 108 124 120 105 86 108 129 127 121 103 62 48 112 138